Simultaneous Nadir Overpasses (SNOs) Predictions

Prediction of SNOs between GOES-17 and METOP-B Satellite Orbit:

Table of predicted SNOs for the next 14.0 days since TLE Epoch: 3/18/2023
Index Date Time (GOES-17) GOES-17 Lat,Lon METOP-B Lat,Lon Distance(km) Time Diff (sec)
1 03/19/2023 04:45:52 0.01,-104.72 -1.00,-109.10 499.89 80
2 03/20/2023 04:27:52 0.00,-104.71 0.16,-104.11 69.05 80
3 03/21/2023 16:44:03 0.00,-104.74 0.86,-108.67 446.74 80
4 03/22/2023 16:26:02 0.01,-104.74 -0.24,-103.67 122.36 80
5 03/24/2023 04:45:01 -0.01,-104.69 -0.80,-108.25 405.82 80
6 03/25/2023 04:24:20 -0.01,-104.69 0.31,-103.26 163.24 80
7 03/26/2023 16:40:30 -0.02,-104.72 0.70,-107.81 353.25 80
8 03/27/2023 16:22:30 -0.02,-104.71 -0.41,-102.82 215.69 80
9 03/29/2023 04:41:28 0.02,-104.67 -0.61,-107.40 312.62 80
10 03/30/2023 04:18:08 0.02,-104.66 0.51,-102.41 256.28 80
11 03/31/2023 16:36:58 -0.02,-104.69 0.49,-106.97 259.44 80
